Location: Burbank
(38.7788°N, 114.0429°W)
Time: 20:41:53
(UTC+00:00)

Vanguard 2 Rocket - Pass Details

Date: 18 May 2026
Orbit: 553 x 3286 km, 32.9° (Epoch: 6 June)

Event Time Altitude Azimuth Distance (km) Brightness Sun altitude
Rises 18:34:20 0° 251° (WSW) 4,927 10.6 67.1°
Reaches altitude 10° 18:37:03 10° 249° (WSW) 4,235 10.4 67.4°
Maximum altitude 18:49:28 69° 169° (S) 2,784 12.2 68.7°
Drops below altitude 10° 19:08:40 10° 92° (E) 6,211 11.4 70.2°
Sets 19:13:40 0° 91° (E) 7,259 11.6 70.5°
